Tracking 21612 objects as of 19-Oct-2020
HD Live streaming from Space Station
objects crossing your sky now

COSMOS 1275 DEB

Track COSMOS 1275 DEB now!
10-day predictions


NORAD ID: 39959
Int'l Code: 1981-053PB
Perigee: 959.0 km
Apogee: 1,018.0 km
Inclination: 83.0 °
Period: 104.7 minutes
Semi major axis: 7359 km
RCS: 0.0076 m2 (small)
Launch date: April 25, 1981
Source: Commonwealth of Independent States (former USSR) (CIS)
Launch site: PLESETSK MISSILE AND SPACE COMPLEX (PKMTR)

Note: This is SATELLITE DEBRIS
aabbcc
Your satellite tracking list
Your tracking list is empty




NASA's NSSDC Master Catalog

Two Line Element Set (TLE):
1 39959U 81053NV  20292.43705726 +.00000060 +00000-0 +46026-4 0  9999
2 39959 082.9629 346.6949 0040033 160.3121 199.9592 13.75090270861775
Source of the keplerian elements: AFSPC